sat.trackr.live / text

‹ back to catalog

UNKNOWN

NORAD 81499

UNKNOWN UNKNOWN UNKNOWN

§ Identity

Operator
Country
Launch date
Launch site
Launch vehicle
Mass (kg)
RCS (m²)

External: N2YO · Heavens-Above

§ Orbital elements

Epoch: 2026-09-18T04:34:56.884224Z

Period
99.42 min
Inclination
74.0472°
Eccentricity
0.0001514
Mean motion
14.48420095 rev/d
Perigee alt
729.7 km
Apogee alt
731.9 km
Semi-major
7,109.0 km
B*
4.1853e-4
RAAN
58.4934°
Arg perigee
104.8457°
Mean anomaly
255.2870°
Rev number
52,286

§ Raw data

UNKNOWN1 81499U          26261.19093616  .00001541  00000+0  41853-3 0  99972 81499  74.0472  58.4934 0001514 104.8457 255.2870 14.48420095522869

JSON: /api/v1/satellites/81499 · /tle

For live sub-satellite position, see the globe view (requires WebGL).

§ Visibility from observer

Set your observer location to see the next 7 days of passes ≥ 10°. The values pass through the URL so the page stays shareable.

No JS? Fill the form by hand. The geolocation button needs JavaScript.